ENY4220 KORD-KMHT

Flight info

Callsign ENY4220
Flight time N/A
Altitude 37000
Route EBAKE WISMO POSTS PADDE SVM DKK PONCT ROZZE2
Aircraft E75L/M-SDE3GILORVW/S

Departure

Time N/A
Airport Chicago O'Hare International Airport (KORD)

Arrival

Time 2026-04-27 18:45
Airport Manchester-Boston Regional Airport (KMHT)
Time Latitude Longitude Altitude Speed Heading
2026-04-27 17:21 42.29562 -84.84762 37033 ft 493 kts 90°
2026-04-27 17:21 42.29328 -84.75501 37029 ft 494 kts 90°
2026-04-27 17:22 42.29087 -84.66208 37051 ft 494 kts 90°
2026-04-27 17:22 42.28840 -84.56920 37066 ft 494 kts 90°
2026-04-27 17:23 42.28651 -84.47678 37061 ft 492 kts 84°
2026-04-27 17:23 42.29755 -84.38594 37075 ft 491 kts 75°
2026-04-27 17:24 42.31113 -84.29555 37065 ft 490 kts 76°
2026-04-27 17:24 42.32411 -84.20515 37060 ft 491 kts 76°
2026-04-27 17:25 42.33694 -84.11438 37068 ft 491 kts 76°
2026-04-27 17:25 42.34970 -84.02346 37084 ft 492 kts 76°
2026-04-27 17:26 42.36232 -83.93286 37087 ft 492 kts 76°
2026-04-27 17:26 42.37495 -83.84171 37094 ft 493 kts 76°
2026-04-27 17:27 42.38477 -83.77038 37089 ft 493 kts 76°
2026-04-27 17:27 42.39700 -83.68122 37098 ft 494 kts 76°
2026-04-27 17:28 42.40880 -83.58971 37115 ft 494 kts 81°
2026-04-27 17:29 42.41434 -83.44954 37102 ft 497 kts 85°
2026-04-27 17:29 42.41747 -83.35618 37110 ft 497 kts 85°
2026-04-27 17:30 42.42077 -83.26307 37120 ft 498 kts 85°
2026-04-27 17:30 42.42558 -83.12274 37132 ft 498 kts 85°
2026-04-27 17:31 42.42869 -83.02897 37130 ft 498 kts 85°
2026-04-27 17:31 42.43172 -82.93532 37132 ft 499 kts 85°
2026-04-27 17:32 42.43612 -82.79470 37128 ft 498 kts 85°
2026-04-27 17:33 42.43896 -82.70089 37120 ft 499 kts 85°
2026-04-27 17:33 42.44172 -82.60696 37125 ft 498 kts 85°
2026-04-27 17:34 42.44442 -82.51307 37133 ft 499 kts 85°
2026-04-27 17:34 42.44701 -82.41980 37146 ft 499 kts 85°
2026-04-27 17:35 42.44957 -82.32514 37138 ft 505 kts 85°
2026-04-27 17:35 42.45209 -82.22980 37185 ft 514 kts 85°
2026-04-27 17:36 42.45454 -82.13289 37144 ft 515 kts 85°
2026-04-27 17:36 42.45692 -82.03581 37155 ft 515 kts 84°
2026-04-27 17:37 42.45921 -81.93897 37155 ft 515 kts 84°
2026-04-27 17:37 42.46142 -81.84197 37163 ft 515 kts 84°
2026-04-27 17:38 42.46357 -81.74503 37191 ft 515 kts 84°
2026-04-27 17:38 42.46563 -81.64798 37201 ft 515 kts 84°
2026-04-27 17:39 42.46763 -81.55093 37208 ft 516 kts 84°
2026-04-27 17:39 42.46958 -81.45387 37185 ft 514 kts 84°
2026-04-27 17:40 42.47142 -81.35708 37193 ft 514 kts 84°
2026-04-27 17:40 42.47315 -81.26036 37191 ft 513 kts 83°
2026-04-27 17:41 42.47502 -81.16434 37192 ft 512 kts 83°
2026-04-27 17:41 42.47668 -81.06757 37196 ft 512 kts 84°
2026-04-27 17:42 42.47816 -80.97116 37199 ft 511 kts 83°
2026-04-27 17:42 42.47967 -80.87494 37201 ft 510 kts 83°
2026-04-27 17:43 42.48104 -80.77884 37205 ft 510 kts 83°
2026-04-27 17:43 42.48218 -80.68259 37205 ft 509 kts 83°
2026-04-27 17:44 42.48349 -80.58673 37209 ft 508 kts 83°
2026-04-27 17:44 42.48488 -80.49128 37202 ft 508 kts 83°
2026-04-27 17:45 42.48609 -80.39561 37206 ft 507 kts 83°
2026-04-27 17:45 42.48710 -80.29975 37209 ft 507 kts 83°
2026-04-27 17:46 42.48805 -80.20420 37208 ft 506 kts 83°
2026-04-27 17:46 42.48891 -80.10899 37210 ft 506 kts 83°
2026-04-27 17:47 42.48967 -80.01337 37210 ft 505 kts 83°
2026-04-27 17:47 42.49029 -79.91840 37208 ft 504 kts 83°
2026-04-27 17:48 42.49085 -79.82366 37212 ft 504 kts 83°
2026-04-27 17:48 42.49118 -79.72868 37210 ft 503 kts 83°
2026-04-27 17:49 42.49149 -79.63369 37207 ft 502 kts 83°
2026-04-27 17:49 42.49173 -79.53949 37207 ft 500 kts 83°
2026-04-27 17:50 42.49202 -79.44562 37204 ft 500 kts 83°
2026-04-27 17:50 42.49231 -79.30447 37208 ft 499 kts 83°
2026-04-27 17:51 42.49535 -79.21089 37207 ft 495 kts 78°
2026-04-27 17:51 42.50107 -79.11817 37207 ft 493 kts 77°
2026-04-27 17:52 42.50734 -79.02547 37200 ft 493 kts 77°
2026-04-27 17:52 42.51264 -78.94793 37210 ft 493 kts 77°
2026-04-27 17:53 42.51994 -78.84040 37214 ft 494 kts 77°
2026-04-27 17:53 42.52615 -78.74769 37214 ft 494 kts 77°
2026-04-27 17:54 42.53129 -78.67007 37213 ft 494 kts 77°
2026-04-27 17:54 42.53736 -78.57730 37215 ft 494 kts 77°
2026-04-27 17:55 42.54334 -78.48483 37219 ft 492 kts 77°
2026-04-27 17:55 42.54925 -78.39225 37223 ft 492 kts 77°
2026-04-27 17:56 42.55511 -78.29939 37222 ft 491 kts 77°
2026-04-27 17:56 42.56084 -78.20723 37224 ft 490 kts 78°
2026-04-27 17:57 42.56647 -78.11525 37234 ft 489 kts 78°
2026-04-27 17:57 42.57204 -78.02350 37245 ft 489 kts 78°
2026-04-27 17:58 42.57751 -77.93196 37243 ft 487 kts 78°
2026-04-27 17:58 42.58295 -77.84004 37250 ft 487 kts 78°
2026-04-27 17:59 42.58828 -77.74885 37251 ft 486 kts 78°
2026-04-27 17:59 42.59356 -77.65705 37243 ft 485 kts 78°
2026-04-27 18:00 42.59870 -77.56639 37256 ft 484 kts 78°
2026-04-27 18:00 42.60387 -77.47499 37248 ft 484 kts 78°
2026-04-27 18:01 42.60893 -77.38385 37261 ft 483 kts 78°
2026-04-27 18:01 42.61253 -77.31803 37253 ft 482 kts 79°
2026-04-27 18:02 42.61689 -77.23541 37241 ft 483 kts 79°
2026-04-27 18:02 42.62164 -77.14440 37254 ft 483 kts 79°
2026-04-27 18:03 42.62643 -77.05378 37253 ft 483 kts 79°
2026-04-27 18:03 42.63121 -76.96266 37247 ft 482 kts 79°
2026-04-27 18:04 42.63591 -76.87158 37252 ft 482 kts 79°
2026-04-27 18:04 42.64052 -76.78083 37251 ft 483 kts 79°
2026-04-27 18:05 42.64498 -76.68968 37250 ft 482 kts 79°
2026-04-27 18:05 42.64945 -76.59881 37251 ft 483 kts 79°
2026-04-27 18:06 42.65379 -76.50728 37259 ft 483 kts 79°
2026-04-27 18:06 42.65810 -76.41657 37254 ft 483 kts 79°
2026-04-27 18:07 42.66240 -76.32520 37255 ft 484 kts 79°
2026-04-27 18:07 42.66653 -76.23411 37252 ft 484 kts 80°
2026-04-27 18:08 42.67059 -76.14292 37258 ft 484 kts 80°
2026-04-27 18:08 42.67471 -76.05154 37254 ft 484 kts 79°
2026-04-27 18:09 42.67861 -75.96021 37251 ft 484 kts 80°
2026-04-27 18:09 42.68236 -75.86855 37251 ft 484 kts 80°
2026-04-27 18:10 42.68614 -75.77736 37253 ft 483 kts 80°
2026-04-27 18:10 42.68993 -75.68582 37250 ft 483 kts 80°
2026-04-27 18:11 42.69354 -75.59495 37250 ft 482 kts 80°
2026-04-27 18:11 42.69714 -75.50374 37253 ft 482 kts 80°
2026-04-27 18:12 42.70061 -75.41269 37251 ft 481 kts 81°
2026-04-27 18:12 42.70396 -75.32224 37255 ft 480 kts 81°
2026-04-27 18:13 42.70732 -75.23155 37258 ft 479 kts 81°
2026-04-27 18:13 42.71055 -75.14110 37265 ft 478 kts 81°
2026-04-27 18:14 42.71380 -75.05038 37264 ft 477 kts 81°
2026-04-27 18:14 42.71692 -74.96043 37266 ft 477 kts 81°
2026-04-27 18:15 42.71996 -74.87043 37265 ft 476 kts 81°
2026-04-27 18:15 42.72298 -74.78060 37265 ft 475 kts 81°
2026-04-27 18:16 42.72576 -74.69112 37269 ft 475 kts 81°
2026-04-27 18:16 42.72857 -74.60104 37265 ft 475 kts 81°
2026-04-27 18:17 42.73127 -74.51149 37272 ft 475 kts 82°
2026-04-27 18:17 42.73389 -74.42199 37271 ft 474 kts 81°
2026-04-27 18:18 42.73660 -74.33243 37284 ft 473 kts 81°
2026-04-27 18:18 42.73937 -74.24258 37282 ft 473 kts 82°
2026-04-27 18:19 42.74155 -74.15339 37288 ft 473 kts 82°
2026-04-27 18:19 42.74378 -74.06379 37293 ft 473 kts 82°
2026-04-27 18:20 42.74610 -73.97439 37291 ft 473 kts 82°
2026-04-27 18:20 42.74714 -73.92966 36915 ft 467 kts 82°
2026-04-27 18:20 42.74805 -73.88634 36655 ft 451 kts 82°
2026-04-27 18:21 42.74902 -73.84380 35958 ft 448 kts 81°
2026-04-27 18:21 42.75002 -73.80156 35358 ft 443 kts 81°
2026-04-27 18:21 42.75061 -73.76021 34777 ft 439 kts 81°
2026-04-27 18:21 42.75135 -73.71898 34192 ft 434 kts 80°
2026-04-27 18:22 42.75244 -73.67807 33635 ft 426 kts 80°
2026-04-27 18:22 42.75368 -73.63799 33037 ft 421 kts 79°
2026-04-27 18:22 42.75498 -73.59847 32523 ft 413 kts 79°
2026-04-27 18:22 42.75629 -73.55941 31945 ft 410 kts 79°
2026-04-27 18:23 42.75758 -73.52121 31428 ft 410 kts 79°
2026-04-27 18:23 42.75889 -73.48217 30869 ft 413 kts 80°
2026-04-27 18:23 42.76026 -73.44288 30310 ft 415 kts 80°
2026-04-27 18:23 42.76167 -73.40363 29761 ft 414 kts 80°
2026-04-27 18:24 42.76301 -73.36466 29197 ft 416 kts 80°
2026-04-27 18:24 42.76434 -73.32513 28675 ft 416 kts 81°
2026-04-27 18:24 42.76565 -73.28593 28126 ft 416 kts 81°
2026-04-27 18:24 42.76692 -73.24640 27544 ft 415 kts 81°
2026-04-27 18:25 42.76814 -73.20768 27016 ft 410 kts 81°
2026-04-27 18:25 42.76939 -73.16905 26472 ft 405 kts 81°
2026-04-27 18:25 42.77062 -73.13101 25940 ft 400 kts 81°
2026-04-27 18:25 42.77182 -73.09315 25256 ft 399 kts 81°
2026-04-27 18:26 42.77299 -73.05589 24548 ft 395 kts 81°
2026-04-27 18:26 42.77435 -73.01904 24097 ft 383 kts 79°
2026-04-27 18:26 42.77644 -72.98309 23535 ft 377 kts 78°
2026-04-27 18:26 42.77791 -72.95965 23249 ft 374 kts 79°
2026-04-27 18:27 42.78004 -72.92432 22731 ft 374 kts 79°
2026-04-27 18:27 42.78207 -72.88889 22255 ft 373 kts 79°
2026-04-27 18:27 42.78403 -72.85364 21760 ft 370 kts 80°
2026-04-27 18:27 42.78592 -72.81875 21262 ft 368 kts 80°
2026-04-27 18:28 42.78780 -72.78407 20789 ft 365 kts 81°
2026-04-27 18:28 42.78964 -72.74974 20301 ft 363 kts 81°
2026-04-27 18:28 42.79146 -72.71590 19821 ft 360 kts 81°
2026-04-27 18:28 42.79334 -72.68176 19348 ft 358 kts 81°
2026-04-27 18:29 42.79520 -72.64826 18883 ft 355 kts 81°
2026-04-27 18:29 42.79703 -72.61474 18377 ft 353 kts 82°
2026-04-27 18:29 42.79882 -72.58172 17951 ft 348 kts 82°
2026-04-27 18:29 42.80061 -72.54864 17464 ft 348 kts 82°
2026-04-27 18:30 42.80235 -72.51582 17014 ft 345 kts 82°
2026-04-27 18:30 42.80406 -72.48376 16563 ft 343 kts 82°
2026-04-27 18:30 42.80577 -72.45109 16097 ft 340 kts 83°
2026-04-27 18:30 42.80740 -72.41934 15660 ft 338 kts 83°
2026-04-27 18:31 42.80902 -72.38727 15210 ft 336 kts 83°
2026-04-27 18:31 42.81059 -72.35575 14778 ft 333 kts 84°
2026-04-27 18:31 42.81212 -72.32474 14320 ft 326 kts 84°
2026-04-27 18:31 42.81365 -72.29403 13879 ft 318 kts 84°
2026-04-27 18:32 42.81513 -72.26478 13484 ft 309 kts 84°
2026-04-27 18:32 42.81659 -72.23581 13079 ft 301 kts 84°
2026-04-27 18:32 42.81796 -72.20762 12688 ft 294 kts 84°
2026-04-27 18:32 42.81929 -72.18021 12310 ft 288 kts 84°
2026-04-27 18:33 42.82061 -72.15313 11927 ft 284 kts 84°
2026-04-27 18:33 42.82200 -72.12632 11570 ft 282 kts 84°
2026-04-27 18:33 42.82351 -72.09963 11184 ft 281 kts 84°
2026-04-27 18:33 42.82496 -72.07373 10822 ft 280 kts 84°
2026-04-27 18:34 42.82632 -72.04874 10468 ft 279 kts 84°
2026-04-27 18:34 42.82764 -72.02288 10106 ft 277 kts 84°
2026-04-27 18:34 42.82909 -71.99660 9737 ft 274 kts 84°
2026-04-27 18:34 42.83032 -71.97078 9364 ft 272 kts 85°
2026-04-27 18:35 42.83134 -71.94524 9030 ft 271 kts 85°
2026-04-27 18:35 42.83512 -71.92033 8680 ft 268 kts 64°
2026-04-27 18:35 42.84489 -71.89867 8379 ft 267 kts 53°
2026-04-27 18:35 42.85619 -71.87875 8037 ft 268 kts 52°
2026-04-27 18:36 42.86758 -71.85854 7675 ft 268 kts 53°
2026-04-27 18:36 42.87854 -71.83830 7366 ft 264 kts 54°
2026-04-27 18:36 42.88923 -71.81793 7057 ft 264 kts 54°
2026-04-27 18:36 42.89985 -71.79733 6699 ft 264 kts 54°
2026-04-27 18:37 42.91031 -71.77727 6402 ft 261 kts 54°
2026-04-27 18:37 42.92096 -71.75689 6064 ft 262 kts 54°
2026-04-27 18:37 42.93140 -71.73693 5743 ft 251 kts 56°
2026-04-27 18:37 42.94149 -71.71809 5426 ft 244 kts 54°
2026-04-27 18:38 42.95109 -71.69960 5202 ft 230 kts 56°
2026-04-27 18:38 42.96090 -71.68298 5052 ft 224 kts 40°
2026-04-27 18:38 42.97499 -71.67525 5043 ft 219 kts 10°
2026-04-27 18:38 42.99008 -71.67254 4998 ft 220 kts
2026-04-27 18:39 43.00538 -71.66975 5012 ft 222 kts
2026-04-27 18:39 43.02084 -71.66695 5024 ft 224 kts
2026-04-27 18:39 43.03620 -71.66403 5015 ft 224 kts
2026-04-27 18:39 43.05173 -71.66012 4715 ft 230 kts 23°
2026-04-27 18:40 43.06365 -71.64687 4566 ft 220 kts 60°
2026-04-27 18:40 43.06876 -71.62757 4445 ft 215 kts 75°
2026-04-27 18:40 43.07264 -71.60750 4160 ft 218 kts 76°
2026-04-27 18:40 43.07654 -71.58753 3872 ft 219 kts 76°
2026-04-27 18:41 43.07814 -71.56689 3579 ft 218 kts 100°
2026-04-27 18:41 43.07226 -71.54811 3344 ft 214 kts 121°
2026-04-27 18:41 43.06415 -71.53142 3029 ft 209 kts 123°
2026-04-27 18:41 43.05610 -71.51535 2855 ft 196 kts 126°
2026-04-27 18:42 43.04713 -71.50239 2564 ft 186 kts 145°
2026-04-27 18:42 43.03941 -71.49739 2356 ft 181 kts 159°
2026-04-27 18:42 43.02473 -71.48944 2119 ft 163 kts 153°
2026-04-27 18:42 43.01479 -71.48276 1903 ft 152 kts 154°
2026-04-27 18:43 43.00533 -71.47744 1667 ft 142 kts 154°
2026-04-27 18:43 42.99636 -71.47210 1476 ft 140 kts 153°
2026-04-27 18:43 42.98745 -71.46673 1289 ft 140 kts 154°
2026-04-27 18:43 42.97859 -71.46154 1074 ft 140 kts 154°
2026-04-27 18:44 42.96954 -71.45610 891 ft 143 kts 154°
2026-04-27 18:44 42.96036 -71.45067 677 ft 144 kts 155°
2026-04-27 18:44 42.95120 -71.44524 484 ft 143 kts 154°
2026-04-27 18:44 42.94205 -71.43971 293 ft 143 kts 155°
2026-04-27 18:45 42.93348 -71.43472 230 ft 121 kts 155°
2026-04-27 18:45 42.92761 -71.43120 236 ft 63 kts 156°
2026-04-27 18:45 42.92504 -71.43001 245 ft 24 kts 202°
2026-04-27 18:45 42.92513 -71.43136 244 ft 19 kts 340°
2026-04-27 18:46 42.92623 -71.43201 239 ft 14 kts 336°
2026-04-27 18:46 42.92697 -71.43250 236 ft 2 kts 303°
2026-04-27 18:46 42.92694 -71.43280 236 ft 8 kts 257°
2026-04-27 18:46 42.92655 -71.43409 232 ft 20 kts 254°
2026-04-27 18:47 42.92696 -71.43496 230 ft 8 kts 321°
2026-04-27 18:47 42.92702 -71.43565 231 ft 10 kts 253°
2026-04-27 18:47 42.92669 -71.43670 232 ft 14 kts 245°
2026-04-27 18:47 42.92684 -71.43749 231 ft 9 kts 342°
2026-04-27 18:48 42.92709 -71.43761 231 ft 0 kts 339°